Regional Weather Roundup
Issued by NWS

Home | Current Version | Previous Version | Text Only | Print | Product List | Glossary Off
Versions: 1 2 3 4 5 6 7 8 9 10 11 12 13 14 15 16 17 18 19 20 21 22 23 24 25 26 27 28 29 30 31 32 33 34 35 36 37 38 39 40 41 42 43 44 45 46 47 48 49 50

000
ASUS43 KLMK 302002
RWRKY
KENTUCKY REGIONAL WEATHER ROUNDUP
NATIONAL WEATHER SERVICE LOUISVILLE KY
400 PM EDT THU JUL 30 2015

NOTE "FAIR" INDICATES FEW OR NO CLOUDS BELOW 12,000 FEET
WITH NO SIGNIFICANT WEATHER AND/OR OBSTRUCTIONS TO VISIBILITY.

KYZ001>023-026-027-061>063-070>075-302100-
WESTERN AND SOUTH CENTRAL KENTUCKY

CITY           SKY/WX    TMP DP  RH WIND       PRES   REMARKS
PADUCAH        SUNNY     87  63  44 NE8       30.12F
HENDERSON      SUNNY     84  59  42 NW7       30.10F
OWENSBORO      SUNNY     86  61  42 NW8       30.11F
HOPKINSVILLE   SUNNY     84  62  47 N10       30.10F
BOWLING GREEN  SUNNY     87  60  40 VRB3      30.09F
GLASGOW        NOT AVBL
$$

KYZ024-025-028>034-038-045-046-053-302100-
NORTH CENTRAL KENTUCKY

CITY           SKY/WX    TMP DP  RH WIND       PRES   REMARKS
LOUISVILLE/SDF MOSUNNY   88  56  33 NW8       30.08S
LOUISVILLE/LOU SUNNY     88  57  34 N9        30.09F
FORT KNOX      SUNNY     84  61  45 NW9       30.08F
$$

KYZ035>037-039>044-047>052-055>060-089>105-302100-
NORTHEAST KENTUCKY

CITY           SKY/WX    TMP DP  RH WIND       PRES   REMARKS
LEXINGTON      SUNNY     84  61  45 NW9       30.08F
COVINGTON      MOSUNNY   84  48  28 NW10G17   30.08S
FRANKFORT      SUNNY     84  58  40 NW8       30.08S
$$

KYZ054-064>069-076>088-106>120-302100-
SOUTHEAST KENTUCKY

CITY           SKY/WX    TMP DP  RH WIND       PRES   REMARKS
JACKSON        MOSUNNY   81  64  56 NW6       30.06F
LONDON         SUNNY     86  61  42 N9        30.07F
SOMERSET       NOT AVBL
MIDDLESBORO    NOT AVBL
MONTICELLO     CLEAR     86  68  54 NW10      30.10F
$$




USA.gov is the U.S. government's official web portal to all federal, state and local government web resources and services.